KZ1X Weather Reports


Display with metric or nautical units.
time (UTC)temp
F
wind
direction
speed
MPH
gust
MPH
rain 1hr
in
rain 24hr
in
rain mn
in
humidity
%
barometer
mb
20260505064537 60 0 0.0 0.0 0.00 0.00 0.00 74 1015.1
20260505063046 61 0 0.0 0.0 0.00 0.00 0.00 73 1015.1
20260505061545 61 0 0.0 0.0 0.00 0.00 0.00 73 1015.1
20260505060042 61 0 0.0 0.0 0.00 0.00 0.00 72 1015.1
20260505054609 62 0 0.0 0.0 0.00 0.00 0.00 71 1015.0
20260505053045 62 0 0.0 0.0 0.00 0.00 0.00 71 1015.0
20260505051544 62 0 0.0 0.0 0.00 0.00 0.00 70 1015.3
20260505041549 62 0 0.0 0.0 0.00 0.00 0.00 69 1015.3
20260505040042 62 0 0.0 0.0 0.00 0.00 0.00 68 1015.3
20260505034544 63 0 0.0 0.0 0.00 0.00 0.00 66 1015.3
20260505033041 63 0 0.0 0.0 0.00 0.00 0.00 64 1015.4
20260505031542 64 0 0.0 0.0 0.00 0.00 0.00 63 1015.3
20260505030053 63 0 0.0 0.0 0.00 0.00 0.00 61 1015.3
20260505024537 63 0 0.0 0.0 0.00 0.00 0.00 61 1015.2
20260505023040 63 0 0.0 0.0 0.00 0.00 0.00 59 1015.1
20260505021549 64 0 0.0 0.0 0.00 0.00 0.00 58 1015.0
20260505020052 63 0 0.0 0.0 0.00 0.00 0.00 60 1015.0
20260505014540 63 0 0.0 0.0 0.00 0.00 0.00 61 1014.8
20260505013037 62 0 0.0 0.0 0.00 0.00 0.00 61 1014.6
20260505011537 63 0 0.0 0.0 0.00 0.00 0.00 59 1014.4
20260505010059 64 0 0.0 0.0 0.00 0.00 0.00 58 1014.2
20260505004545 65 0 0.0 0.0 0.00 0.00 0.00 54 1014.0
20260505003048 66 0 0.0 0.0 0.00 0.00 0.00 53 1013.8
20260505001541 67 0 0.0 0.0 0.00 0.00 0.00 50 1013.7
20260505000053 68 0 0.0 0.0 0.00 0.00 0.00 48 1013.6
20260504234545 70 0 0.0 0.0 0.00 0.00 0.00 46 1013.4
20260504233049 71 0 0.0 0.0 0.00 0.00 0.00 44 1013.4
20260504231540 72 0 0.0 0.0 0.00 0.00 0.00 43 1013.4
20260504230046 73 0 0.0 1.0 0.00 0.00 0.00 45 1013.4
20260504224550 73 0 0.0 1.0 0.00 0.00 0.00 44 1013.3
20260504223042 74 0 0.0 2.0 0.00 0.00 0.00 43 1013.4
20260504221542 75 0 0.0 2.0 0.00 0.00 0.00 41 1013.3
20260504220040 75 271 0.0 1.0 0.00 0.00 0.00 40 1013.4
20260504214543 76 293 0.0 1.0 0.00 0.00 0.00 40 1013.4
20260504213034 77 238 0.0 2.0 0.00 0.00 0.00 39 1013.4
20260504211542 77 0 0.0 2.0 0.00 0.00 0.00 40 1013.4
20260504210055 78 158 0.0 2.0 0.00 0.00 0.00 37 1013.3
20260504204546 79 233 0.0 2.0 0.00 0.00 0.00 37 1013.3
20260504203042 79 0 1.0 3.0 0.00 0.00 0.00 34 1013.6
20260504201547 80 333 1.0 3.0 0.00 0.00 0.00 33 1013.7
20260504200051 80 278 0.0 2.0 0.00 0.00 0.00 33 1013.8
20260504194539 80 131 0.0 2.0 0.00 0.00 0.00 35 1014.1
20260504193042 80 243 1.0 3.0 0.00 0.00 0.00 34 1014.2
20260504191538 79 0 0.0 3.0 0.00 0.00 0.00 34 1014.4
20260504190042 80 0 1.0 3.0 0.00 0.00 0.00 36 1014.6
20260504184542 80 0 0.0 3.0 0.00 0.00 0.00 33 1014.8
20260504183041 80 0 0.0 2.0 0.00 0.00 0.00 32 1015.0
20260504181538 80 110 1.0 3.0 0.00 0.00 0.00 33 1015.3
20260504180037 80 282 0.0 2.0 0.00 0.00 0.00 34 1015.2
20260504174532 78 138 0.0 2.0 0.00 0.00 0.00 35 1015.4
20260504173042 78 92 0.0 3.0 0.00 0.00 0.00 33 1015.5
20260504171538 77 0 0.0 2.0 0.00 0.00 0.00 37 1015.4
20260504081544 43 0 0.0 0.0 0.00 0.00 0.00 85 1016.9